QPF
0.00 0.00 0.00 0.00 0.00 0.00 0.00 0.00 0.00 0.00 0.00 0.00 0.00 0.00 0.00 0.00 0.00 0.00 0.00 0.00 0.00 0.00 0.00 0.00 0.00 0.00 0.00 0.00 0.00 0.00 0.00 0.00 0.00 0.00 0.00 0.00 0.00 0.00 0.00 0.01 0.00 0.01 0.02 0.01 0.01 0.01 0.00 0.00 0.00
0.00 0.00 0.00 0.00 0.00 0.00 0.00 0.00 0.00 0.00 0.00 0.00 0.00 0.00 0.00 0.00 0.00 0.00 0.00 0.00 0.00 0.00 0.00 0.00 0.00 0.00 0.00 0.00 0.00 0.00 0.00 0.00 0.00 0.00 0.01 0.01 0.00 0.00 0.01 0.00 0.01 0.02 0.02 0.01 0.00 0.00 0.00 0.00 0.00
0.00 0.00 0.00 0.00 0.00 0.00 0.00 0.00 0.00 0.00 0.00 0.00 0.00 0.00 0.00 0.00 0.00 0.00 0.00 0.00 0.00 0.00 0.00 0.00 0.00 0.00 0.00 0.00 0.00 0.00 0.00 0.00 0.00 0.00 0.01 0.01 0.01 0.00 0.01 0.01 0.01 0.02 0.01 0.00 0.00 0.00 0.00 0.00 0.00
0.00 0.00 0.00 0.00 0.00 0.00 0.00 0.00 0.00 0.00 0.00 0.00 0.00 0.00 0.00 0.00 0.00 0.00 0.00 0.00 0.00 0.00 0.00 0.00 0.00 0.00 0.00 0.00 0.00 0.00 0.00 0.00 0.00 0.00 0.00 0.01 0.01 0.00 0.00 0.00 0.01 0.03 0.01 0.00 0.00 0.00 0.00 0.00 0.00
0.00 0.00 0.00 0.00 0.00 0.00 0.00 0.00 0.00 0.00 0.00 0.00 0.00 0.00 0.00 0.00 0.00 0.00 0.00 0.00 0.00 0.00 0.00 0.00 0.00 0.00 0.00 0.00 0.00 0.00 0.00 0.00 0.00 0.00 0.00 0.01 0.00 0.00 0.00 0.00 0.02 0.01 0.00 0.00 0.00 0.00 0.00 0.00 0.00
0.00 0.00 0.00 0.00 0.00 0.00 0.00 0.00 0.00 0.00 0.01 0.02 0.00 0.00 0.00 0.00 0.00 0.00 0.00 0.00 0.00 0.00 0.00 0.00 0.00 0.00 0.00 0.00 0.00 0.00 0.00 0.00 0.00 0.00 0.00 0.00 0.00 0.00 0.00 0.00 0.01 0.01 0.00 0.00 0.00 0.00 0.00 0.00 0.00
0.00 0.00 0.00 0.00 0.00 0.00 0.00 0.00 0.00 0.00 0.00 0.00 0.04 0.01 0.01 0.00 0.00 0.00 0.00 0.00 0.00 0.00 0.00 0.00 0.00 0.00 0.00 0.00 0.00 0.00 0.00 0.00 0.00 0.00 0.00 0.00 0.00 0.01 0.00 0.00 0.01 0.01 0.00 0.00 0.00 0.00 0.00 0.00 0.00
0.00 0.00 0.00 0.00 0.00 0.00 0.00 0.00 0.00 0.00 0.00 0.00 0.03 0.02 0.01 0.02 0.00 0.00 0.00 0.00 0.00 0.00 0.00 0.00 0.00 0.00 0.00 0.00 0.00 0.00 0.00 0.00 0.00 0.00 0.00 0.00 0.00 0.00 0.00 0.00 0.01 0.00 0.00 0.00 0.00 0.00 0.00 0.00 0.00
0.00 0.00 0.00 0.00 0.00 0.00 0.00 0.00 0.00 0.00 0.00 0.00 0.00 0.03 0.02 0.03 0.00 0.00 0.00 0.00 0.00 0.00 0.00 0.00 0.00 0.00 0.00 0.00 0.00 0.00 0.00 0.00 0.00 0.00 0.00 0.00 0.00 0.00 0.00 0.01 0.00 0.00 0.00 0.00 0.00 0.00 0.00 0.00 0.00
0.00 0.00 0.00 0.00 0.00 0.00 0.00 0.00 0.00 0.00 0.00 0.00 0.00 0.01 0.00 0.00 0.00 0.00 0.00 0.00 0.00 0.00 0.00 0.00 0.00 0.00 0.00 0.00 0.00 0.01 0.00 0.00 0.00 0.00 0.00 0.00 0.00 0.00 0.00 0.00 0.00 0.00 0.00 0.00 0.00 0.00 0.00 0.00 0.00
0.00 0.00 0.00 0.00 0.00 0.00 0.00 0.00 0.00 0.00 0.00 0.00 0.00 0.00 0.00 0.00 0.00 0.00 0.00 0.00 0.01 0.01 0.01 0.00 0.00 0.00 0.00 0.00 0.00 0.00 0.00 0.00 0.00 0.00 0.00 0.00 0.00 0.00 0.00 0.00 0.00 0.00 0.00 0.00 0.00 0.00 0.00 0.00 0.00
0.00 0.00 0.00 0.00 0.00 0.00 0.00 0.00 0.00 0.00 0.00 0.00 0.00 0.00 0.01 0.00 0.00 0.01 0.00 0.00 0.01 0.02 0.02 0.01 0.00 0.00 0.00 0.00 0.00 0.00 0.00 0.00 0.00 0.00 0.00 0.00 0.00 0.00 0.00 0.00 0.00 0.00 0.00 0.00 0.00 0.00 0.00 0.00 0.00
0.00 0.00 0.00 0.00 0.00 0.00 0.00 0.00 0.00 0.00 0.00 0.00 0.00 0.00 0.00 0.00 0.00 0.00 0.00 0.00 0.00 0.02 0.02 0.01 0.00 0.00 0.00 0.00 0.00 0.00 0.00 0.00 0.00 0.00 0.00 0.00 0.00 0.00 0.00 0.00 0.00 0.00 0.00 0.00 0.00 0.00 0.00 0.00 0.00
0.00 0.00 0.00 0.00 0.00 0.00 0.00 0.00 0.00 0.00 0.00 0.00 0.00 0.00 0.00 0.00 0.00 0.00 0.00 0.00 0.00 0.00 0.01 0.00 0.00 0.00 0.00 0.00 0.00 0.00 0.00 0.00 0.00 0.00 0.00 0.00 0.00 0.00 0.00 0.00 0.00 0.00 0.00 0.00 0.00 0.00 0.00 0.00 0.00
0.00 0.00 0.00 0.00 0.00 0.00 0.00 0.00 0.00 0.00 0.00 0.00 0.00 0.00 0.00 0.00 0.00 0.00 0.00 0.00 0.00 0.00 0.00 0.00 0.00 0.00 0.00 0.00 0.00 0.00 0.00 0.00 0.00 0.00 0.00 0.00 0.00 0.00 0.00 0.00 0.00 0.00 0.00 0.00 0.00 0.00 0.00 0.00 0.00
0.00 0.00 0.00 0.00 0.00 0.00 0.00 0.00 0.00 0.00 0.00 0.00 0.00 0.00 0.00 0.00 0.00 0.00 0.00 0.00 0.00 0.00 0.00 0.00 0.00 0.00 0.00 0.00 0.00 0.00 0.00 0.00 0.00 0.00 0.00 0.00 0.00 0.00 0.00 0.00 0.00 0.00 0.00 0.00 0.00 0.00 0.00 0.00 0.00
0.00 0.00 0.00 0.00 0.00 0.00 0.00 0.00 0.00 0.00 0.00 0.00 0.00 0.00 0.00 0.00 0.00 0.00 0.00 0.00 0.00 0.00 0.00 0.00 0.00 0.00 0.00 0.00 0.00 0.00 0.00 0.00 0.00 0.00 0.00 0.00 0.00 0.00 0.00 0.00 0.00 0.00 0.00 0.00 0.00 0.00 0.00 0.00 0.00
0.00 0.00 0.00 0.00 0.00 0.00 0.00 0.00 0.00 0.00 0.00 0.00 0.00 0.00 0.00 0.00 0.00 0.00 0.00 0.00 0.00 0.00 0.00 0.01 0.01 0.00 0.00 0.00 0.00 0.00 0.00 0.00 0.00 0.00 0.00 0.00 0.00 0.00 0.00 0.00 0.00 0.00 0.00 0.00 0.00 0.00 0.00 0.00 0.00
0.00 0.00 0.00 0.00 0.00 0.00 0.00 0.00 0.00 0.00 0.00 0.00 0.00 0.00 0.00 0.00 0.00 0.00 0.00 0.00 0.00 0.00 0.00 0.00 0.01 0.02 0.00 0.00 0.00 0.00 0.00 0.00 0.00 0.00 0.00 0.00 0.00 0.00 0.00 0.00 0.00 0.00 0.00 0.00 0.00 0.00 0.00 0.00 0.00
0.00 0.00 0.00 0.00 0.00 0.00 0.00 0.00 0.00 0.00 0.00 0.00 0.00 0.00 0.00 0.00 0.00 0.00 0.00 0.00 0.00 0.00 0.00 0.00 0.00 0.01 0.01 0.00 0.00 0.00 0.00 0.00 0.00 0.00 0.00 0.00 0.00 0.00 0.00 0.00 0.00 0.00 0.00 0.00 0.00 0.00 0.00 0.00 0.00
0.00 0.00 0.00 0.00 0.00 0.00 0.00 0.00 0.00 0.00 0.00 0.00 0.00 0.00 0.00 0.00 0.00 0.00 0.00 0.00 0.00 0.00 0.00 0.00 0.00 0.00 0.00 0.01 0.00 0.00 0.00 0.00 0.00 0.00 0.00 0.00 0.00 0.00 0.00 0.00 0.00 0.00 0.00 0.00 0.00 0.00 0.00 0.00 0.00
0.00 0.00 0.00 0.00 0.00 0.00 0.00 0.00 0.00 0.00 0.00 0.00 0.00 0.00 0.00 0.00 0.00 0.00 0.00 0.00 0.01 0.01 0.00 0.00 0.00 0.00 0.00 0.00 0.00 0.00 0.00 0.00 0.00 0.00 0.00 0.00 0.00 0.00 0.00 0.00 0.00 0.00 0.00 0.00 0.00 0.00 0.00 0.00 0.00
0.00 0.00 0.00 0.00 0.00 0.00 0.00 0.00 0.00 0.00 0.00 0.00 0.00 0.00 0.00 0.00 0.00 0.00 0.00 0.00 0.00 0.01 0.02 0.01 0.00 0.00 0.01 0.02 0.01 0.00 0.00 0.01 0.00 0.00 0.00 0.00 0.00 0.00 0.00 0.00 0.00 0.00 0.00 0.00 0.00 0.00 0.00 0.00 0.00
0.00 0.00 0.00 0.00 0.00 0.00 0.00 0.00 0.00 0.00 0.00 0.00 0.00 0.00 0.00 0.00 0.00 0.00 0.00 0.00 0.00 0.00 0.00 0.01 0.01 0.00 0.00 0.03 0.03 0.00 0.00 0.00 0.00 0.00 0.00 0.00 0.00 0.00 0.00 0.00 0.00 0.00 0.00 0.00 0.00 0.00 0.00 0.00 0.00
0.00 0.00 0.00 0.00 0.00 0.00 0.00 0.00 0.00 0.00 0.00 0.00 0.00 0.00 0.00 0.00 0.00 0.00 0.00 0.00 0.00 0.00 0.00 0.00 0.01 0.00 0.00 0.00 0.01 0.01 0.01 0.01 0.00 0.00 0.00 0.00 0.00 0.00 0.00 0.00 0.00 0.00 0.00 0.00 0.00 0.00 0.00 0.00 0.00
0.00 0.00 0.00 0.00 0.00 0.00 0.00 0.00 0.00 0.00 0.00 0.00 0.00 0.00 0.00 0.00 0.00 0.00 0.00 0.00 0.00 0.00 0.00 0.01 0.01 0.02 0.01 0.00 0.00 0.03 0.03 0.01 0.01 0.00 0.00 0.00 0.00 0.00 0.00 0.00 0.00 0.00 0.00 0.00 0.00 0.00 0.00 0.00 0.00
0.00 0.00 0.00 0.00 0.00 0.00 0.00 0.00 0.00 0.00 0.00 0.00 0.00 0.00 0.00 0.00 0.00 0.00 0.00 0.00 0.00 0.00 0.00 0.01 0.01 0.00 0.01 0.01 0.02 0.03 0.01 0.00 0.00 0.01 0.00 0.00 0.00 0.00 0.00 0.00 0.00 0.00 0.00 0.00 0.00 0.00 0.00 0.00 0.00
0.00 0.00 0.00 0.00 0.00 0.00 0.00 0.00 0.00 0.00 0.00 0.00 0.00 0.00 0.00 0.00 0.00 0.00 0.00 0.00 0.00 0.00 0.00 0.00 0.01 0.02 0.03 0.02 0.02 0.02 0.04 0.02 0.00 0.00 0.01 0.00 0.01 0.00 0.00 0.00 0.00 0.00 0.00 0.00 0.00 0.00 0.00 0.00 0.00
0.00 0.00 0.00 0.00 0.00 0.00 0.00 0.00 0.00 0.00 0.00 0.00 0.00 0.00 0.00 0.00 0.00 0.00 0.00 0.00 0.00 0.00 0.00 0.02 0.05 0.09 0.10 0.07 0.04 0.01 0.02 0.03 0.02 0.00 0.00 0.02 0.03 0.02 0.01 0.01 0.00 0.00 0.00 0.00 0.00 0.00 0.00 0.00 0.00
0.00 0.00 0.00 0.00 0.00 0.00 0.00 0.00 0.00 0.00 0.00 0.00 0.00 0.00 0.00 0.00 0.00 0.00 0.00 0.00 0.00 0.00 0.00 0.01 0.03 0.06 0.07 0.08 0.08 0.05 0.02 0.02 0.03 0.03 0.04 0.03 0.02 0.03 0.02 0.02 0.02 0.03 0.02 0.01 0.00 0.00 0.00 0.00 0.00
MSLP
1014.89 1014.25 1014.05 1014.08 1015.54 1015.69 1014.81 1013.00 1011.69 1010.72 1009.94 1009.80 1009.82 1010.38 1011.43 1012.35 1013.05 1014.21 1014.00 1014.58 1015.30 1016.01 1016.50 1017.09 1017.47 1017.84 1018.32 1018.92 1019.36 1019.65 1020.05 1020.15 1020.46 1020.75 1020.88 1021.25 1021.45 1021.51 1021.55 1021.59 1021.64 1021.83 1021.98 1022.13 1022.26 1022.40 1022.58 1022.82 1022.84
1015.09 1014.58 1014.19 1014.83 1015.81 1015.92 1014.52 1012.61 1011.78 1010.55 1009.92 1009.68 1009.89 1010.64 1011.71 1012.95 1013.18 1013.78 1014.38 1014.80 1014.99 1015.91 1016.37 1017.18 1017.49 1017.80 1018.36 1018.92 1019.39 1019.71 1020.07 1020.27 1020.61 1020.75 1021.01 1021.35 1021.61 1021.71 1021.70 1021.83 1021.93 1022.11 1022.21 1022.49 1022.66 1022.79 1022.85 1023.04 1023.14
1015.05 1015.01 1015.46 1015.45 1015.64 1015.55 1014.16 1012.45 1011.41 1010.98 1010.23 1009.91 1010.47 1011.02 1012.10 1013.09 1013.34 1013.56 1013.92 1014.69 1015.05 1016.03 1016.46 1017.11 1017.63 1017.85 1018.54 1018.99 1019.27 1019.77 1020.04 1020.41 1020.60 1020.90 1021.15 1021.30 1021.63 1021.84 1021.89 1022.09 1022.22 1022.35 1022.52 1022.76 1022.93 1023.11 1023.18 1023.33 1023.38
1015.25 1015.09 1015.52 1015.48 1015.39 1014.39 1013.19 1012.03 1011.46 1011.06 1010.68 1010.39 1010.63 1012.07 1012.73 1012.95 1013.17 1013.38 1014.07 1014.53 1015.14 1016.06 1016.58 1017.26 1017.75 1018.11 1018.54 1019.19 1019.41 1019.75 1020.11 1020.41 1020.75 1020.88 1021.35 1021.53 1021.78 1022.06 1022.20 1022.32 1022.49 1022.59 1022.87 1023.08 1023.27 1023.43 1023.50 1023.53 1023.48
1015.23 1015.73 1015.92 1015.67 1015.02 1013.70 1012.49 1012.06 1011.13 1010.99 1010.76 1010.75 1010.76 1012.35 1013.23 1013.49 1013.08 1013.50 1014.15 1014.83 1015.14 1016.22 1016.78 1017.34 1017.91 1018.33 1018.62 1019.18 1019.54 1019.95 1020.09 1020.49 1020.86 1021.14 1021.58 1021.74 1021.95 1022.24 1022.42 1022.63 1022.71 1022.95 1023.25 1023.47 1023.58 1023.70 1023.81 1023.86 1023.93
1015.86 1015.67 1016.04 1015.55 1014.84 1013.43 1011.93 1011.15 1010.87 1010.78 1010.96 1011.15 1011.23 1012.33 1013.87 1013.82 1013.64 1013.89 1014.22 1014.97 1015.44 1016.21 1016.95 1017.48 1018.08 1018.61 1018.84 1019.24 1019.65 1020.02 1020.33 1020.70 1021.20 1021.37 1021.80 1022.03 1022.18 1022.39 1022.61 1022.84 1023.02 1023.28 1023.54 1023.76 1023.91 1024.00 1024.14 1024.14 1024.14
1015.87 1015.89 1015.74 1015.24 1014.61 1013.38 1011.72 1010.44 1010.47 1010.27 1010.69 1010.95 1011.43 1012.84 1014.21 1014.28 1014.01 1014.12 1014.47 1015.03 1015.87 1016.40 1017.04 1017.63 1018.18 1018.85 1019.03 1019.41 1019.88 1020.18 1020.46 1020.95 1021.36 1021.75 1021.93 1022.21 1022.41 1022.61 1022.87 1023.13 1023.31 1023.56 1023.87 1024.13 1024.22 1024.30 1024.44 1024.45 1024.54
1015.41 1015.82 1015.43 1015.00 1014.26 1012.95 1011.51 1010.83 1010.11 1010.19 1010.71 1010.74 1011.38 1012.90 1014.06 1014.30 1014.28 1014.53 1015.06 1015.55 1016.11 1016.83 1017.10 1017.71 1018.32 1018.88 1019.37 1019.65 1020.07 1020.46 1020.78 1021.11 1021.38 1021.86 1022.16 1022.45 1022.73 1022.95 1023.18 1023.42 1023.54 1023.83 1024.22 1024.46 1024.56 1024.64 1024.83 1024.84 1024.92
1015.24 1015.71 1015.35 1014.52 1013.87 1012.91 1011.57 1011.35 1010.47 1010.31 1010.74 1011.21 1011.98 1012.63 1012.89 1013.55 1014.28 1014.99 1015.69 1016.31 1016.70 1017.13 1017.47 1017.64 1018.27 1018.73 1019.31 1019.76 1020.21 1020.64 1021.02 1021.34 1021.66 1021.99 1022.33 1022.66 1023.05 1023.29 1023.51 1023.76 1023.89 1024.14 1024.53 1024.71 1024.84 1024.96 1025.15 1025.28 1025.41
1015.59 1015.42 1014.94 1013.90 1013.61 1013.26 1012.27 1012.03 1011.45 1011.11 1011.39 1012.07 1012.87 1013.12 1013.49 1014.09 1014.35 1015.04 1015.84 1016.51 1016.86 1017.24 1017.56 1017.75 1018.07 1018.56 1019.22 1019.63 1020.24 1020.67 1021.15 1021.58 1021.97 1022.22 1022.52 1022.75 1023.16 1023.43 1023.69 1024.03 1024.25 1024.54 1024.84 1025.04 1025.07 1025.19 1025.34 1025.60 1025.87
1015.57 1015.42 1014.80 1013.94 1013.71 1013.69 1012.98 1012.48 1012.32 1011.99 1012.18 1012.64 1013.15 1013.67 1013.93 1014.40 1014.79 1015.05 1015.49 1016.14 1016.71 1017.07 1017.45 1017.71 1017.98 1018.29 1018.95 1019.51 1020.20 1020.65 1021.01 1021.50 1021.99 1022.30 1022.61 1022.97 1023.40 1023.71 1024.01 1024.36 1024.58 1024.87 1025.15 1025.46 1025.54 1025.67 1025.75 1025.92 1026.15
1016.14 1015.45 1015.00 1014.17 1013.75 1013.64 1013.38 1013.24 1012.93 1012.84 1013.17 1012.83 1013.01 1013.41 1014.02 1014.63 1014.89 1015.13 1015.47 1015.57 1015.97 1016.61 1016.99 1017.53 1017.66 1018.15 1018.72 1019.53 1020.10 1020.49 1020.96 1021.21 1021.71 1022.14 1022.58 1023.08 1023.55 1023.95 1024.23 1024.41 1024.64 1025.01 1025.38 1025.65 1025.89 1025.86 1025.87 1026.23 1026.35
1016.57 1016.42 1015.70 1014.99 1014.29 1013.85 1013.47 1013.57 1013.72 1013.28 1013.07 1013.31 1013.53 1013.72 1013.94 1014.32 1014.90 1015.21 1015.35 1015.52 1015.70 1015.97 1016.62 1017.00 1017.18 1017.64 1018.29 1019.15 1019.92 1020.43 1020.73 1020.97 1021.30 1021.89 1022.41 1022.85 1023.29 1023.86 1024.20 1024.53 1024.89 1025.28 1025.45 1025.63 1025.88 1025.85 1026.05 1026.37 1026.77
1017.57 1016.96 1016.15 1015.31 1014.91 1014.54 1014.26 1013.86 1013.84 1013.35 1013.09 1013.28 1013.71 1014.14 1014.15 1014.20 1014.28 1015.04 1015.28 1015.31 1015.42 1015.74 1016.09 1016.54 1016.89 1017.11 1017.72 1018.51 1019.33 1019.99 1020.38 1020.51 1021.05 1021.52 1022.05 1022.55 1022.88 1023.54 1024.08 1024.57 1024.86 1025.20 1025.17 1025.43 1025.90 1026.05 1026.45 1026.75 1027.00
1017.79 1017.48 1016.44 1015.47 1015.01 1014.77 1014.45 1014.36 1013.99 1013.68 1013.64 1013.70 1013.71 1014.10 1013.88 1013.67 1013.81 1014.14 1014.53 1014.89 1015.18 1015.45 1015.87 1016.09 1016.59 1016.81 1017.37 1017.89 1018.73 1019.38 1019.85 1019.93 1020.72 1021.13 1021.66 1022.10 1022.44 1023.11 1023.74 1024.29 1024.69 1024.79 1024.66 1025.21 1025.76 1026.29 1026.67 1027.07 1027.21
1018.40 1018.08 1017.20 1015.52 1014.99 1014.91 1014.95 1014.58 1014.41 1013.77 1013.94 1014.05 1013.64 1013.61 1013.76 1013.48 1013.12 1013.31 1013.80 1014.23 1014.64 1014.99 1015.39 1015.75 1016.09 1016.61 1017.06 1017.51 1018.17 1018.81 1019.34 1019.68 1020.18 1020.63 1021.15 1021.61 1021.95 1022.55 1023.33 1023.92 1024.26 1024.48 1024.55 1025.00 1025.56 1026.43 1027.01 1027.45 1027.62
1019.16 1018.88 1017.96 1016.58 1015.49 1015.31 1015.39 1014.92 1013.74 1013.79 1013.94 1013.92 1013.65 1013.27 1012.99 1013.12 1013.01 1012.91 1013.00 1013.39 1013.86 1014.28 1014.77 1015.33 1015.74 1016.15 1016.73 1017.04 1017.60 1018.39 1018.95 1019.46 1019.96 1020.38 1020.91 1021.24 1021.68 1022.10 1022.69 1023.21 1023.73 1024.07 1024.36 1024.92 1025.42 1026.48 1026.66 1027.51 1027.93
1020.42 1019.83 1018.75 1017.93 1016.90 1016.49 1016.12 1015.75 1014.82 1013.84 1013.82 1013.72 1013.48 1013.18 1012.89 1012.69 1012.63 1012.46 1012.51 1012.70 1013.16 1013.66 1014.33 1014.84 1015.51 1016.00 1016.54 1016.97 1017.37 1018.09 1018.79 1019.19 1019.57 1020.16 1020.55 1020.85 1021.41 1021.77 1022.09 1022.61 1023.17 1023.65 1024.27 1024.75 1025.27 1026.06 1026.69 1027.18 1027.91
1020.63 1020.43 1019.82 1018.70 1017.86 1017.54 1016.88 1016.26 1015.37 1014.23 1013.57 1013.38 1013.11 1012.98 1012.84 1012.77 1012.22 1012.20 1012.12 1012.24 1012.64 1013.34 1013.96 1014.35 1014.97 1015.65 1016.15 1016.74 1017.29 1017.89 1018.48 1018.96 1019.33 1019.54 1019.91 1020.47 1020.95 1021.40 1021.64 1022.20 1022.83 1023.32 1023.91 1024.51 1025.09 1025.93 1026.40 1027.34 1027.70
1020.68 1020.59 1020.09 1019.03 1018.45 1018.26 1017.51 1016.72 1015.49 1014.73 1013.72 1013.29 1013.24 1012.96 1012.71 1012.26 1011.81 1012.17 1012.28 1012.45 1012.70 1012.93 1013.17 1013.99 1014.55 1015.07 1015.52 1016.19 1016.84 1017.25 1017.95 1018.51 1018.90 1019.30 1019.67 1019.98 1020.51 1021.07 1021.28 1021.67 1022.30 1022.91 1023.50 1024.13 1024.73 1025.31 1026.29 1026.84 1027.12
1020.67 1020.73 1020.59 1020.47 1019.50 1018.78 1018.01 1016.74 1015.76 1014.27 1013.71 1013.44 1013.07 1013.06 1012.86 1012.68 1012.46 1012.03 1012.38 1012.71 1012.50 1012.96 1013.45 1013.54 1013.88 1014.42 1014.97 1015.48 1016.61 1017.00 1017.69 1018.27 1018.81 1019.13 1019.50 1019.72 1019.98 1020.34 1020.81 1021.02 1021.62 1022.19 1022.63 1023.28 1023.96 1024.74 1025.22 1025.98 1026.77
1020.63 1020.95 1021.03 1021.08 1020.97 1020.51 1019.69 1019.13 1017.38 1015.54 1014.65 1014.07 1013.62 1013.57 1013.26 1012.93 1012.68 1012.42 1012.49 1012.68 1013.01 1012.88 1012.83 1012.95 1013.52 1014.18 1014.66 1014.99 1015.81 1016.37 1016.66 1017.23 1017.59 1018.20 1018.78 1019.10 1019.49 1019.78 1020.18 1020.40 1020.74 1021.41 1021.91 1022.42 1023.02 1023.74 1024.44 1025.16 1025.92
1021.07 1021.16 1021.36 1021.67 1021.81 1021.65 1020.56 1020.75 1018.47 1016.88 1016.15 1015.81 1015.57 1015.15 1014.60 1014.07 1013.61 1013.12 1012.46 1012.53 1012.43 1012.61 1012.84 1012.95 1013.14 1013.55 1014.15 1014.78 1014.87 1015.78 1015.98 1015.90 1016.92 1017.58 1018.18 1018.67 1019.01 1019.32 1019.68 1019.95 1020.12 1020.38 1021.08 1021.47 1022.14 1022.90 1023.57 1024.06 1024.66
1021.49 1021.48 1021.70 1021.94 1022.42 1022.65 1021.35 1021.13 1019.30 1018.28 1018.06 1017.43 1016.93 1016.51 1016.23 1015.54 1014.73 1014.05 1013.41 1012.78 1012.98 1012.33 1012.05 1012.31 1012.60 1013.01 1013.46 1013.93 1014.55 1015.05 1015.60 1015.57 1016.26 1016.58 1017.35 1017.94 1018.36 1018.94 1019.11 1019.32 1019.72 1019.98 1020.16 1020.73 1021.32 1022.01 1022.68 1023.23 1023.73
1022.14 1022.48 1023.18 1023.63 1023.66 1023.02 1021.62 1021.50 1019.68 1019.45 1019.41 1019.39 1018.99 1018.12 1017.18 1016.60 1016.01 1015.37 1014.59 1013.99 1013.30 1013.14 1012.52 1011.84 1011.94 1012.27 1012.68 1013.23 1013.80 1014.31 1014.64 1015.17 1015.00 1015.76 1016.19 1016.93 1017.61 1017.99 1018.27 1018.67 1019.06 1019.39 1019.56 1019.81 1020.58 1021.33 1021.84 1022.32 1022.79
1023.12 1023.44 1024.07 1024.60 1024.62 1023.35 1021.64 1020.90 1020.35 1020.12 1020.20 1020.13 1019.95 1019.50 1018.61 1017.65 1017.10 1016.32 1015.51 1014.84 1014.40 1013.81 1013.13 1012.43 1011.77 1011.55 1012.06 1012.47 1012.96 1013.54 1014.16 1014.49 1014.86 1015.03 1015.21 1015.60 1016.24 1016.71 1016.99 1017.57 1017.99 1018.41 1018.91 1019.12 1019.44 1020.15 1020.62 1021.21 1021.59
1023.71 1023.87 1023.97 1024.47 1024.64 1024.08 1022.38 1020.68 1020.59 1020.02 1019.87 1020.04 1020.36 1020.30 1019.81 1019.08 1018.04 1017.12 1016.36 1015.77 1015.30 1014.52 1013.75 1012.92 1011.99 1011.00 1010.71 1011.17 1011.85 1012.62 1013.41 1013.82 1014.06 1014.06 1014.76 1014.73 1015.34 1015.94 1016.43 1016.72 1017.34 1017.57 1017.87 1018.18 1018.41 1018.87 1019.27 1019.96 1020.43
1024.27 1024.42 1024.17 1024.50 1025.09 1024.41 1023.00 1022.31 1022.22 1021.87 1022.11 1022.06 1021.74 1021.47 1020.83 1020.04 1019.15 1018.12 1017.13 1016.55 1015.78 1015.09 1014.02 1012.63 1011.24 1010.59 1010.25 1010.27 1010.85 1011.68 1012.40 1013.04 1013.40 1013.74 1013.95 1014.37 1014.33 1014.86 1015.47 1015.88 1016.21 1016.66 1017.09 1017.34 1017.68 1017.75 1018.01 1018.63 1019.01
1024.48 1024.39 1024.40 1024.31 1024.65 1024.80 1024.69 1023.66 1023.78 1023.84 1023.79 1023.28 1022.76 1022.07 1021.72 1021.04 1020.20 1019.20 1018.13 1017.22 1016.53 1015.67 1014.41 1013.40 1011.66 1010.68 1010.71 1010.51 1010.72 1011.43 1012.04 1012.51 1012.99 1013.22 1013.26 1013.39 1013.79 1014.12 1014.52 1014.92 1015.18 1015.59 1016.02 1016.40 1016.83 1016.91 1017.07 1017.33 1017.67
1024.72 1024.75 1024.63 1024.70 1024.54 1024.61 1024.84 1024.34 1024.37 1024.39 1024.19 1023.94 1023.47 1023.03 1022.51 1021.75 1020.77 1019.91 1018.94 1018.01 1017.38 1016.51 1015.38 1013.98 1012.74 1012.09 1011.77 1011.24 1011.10 1011.20 1011.54 1011.96 1012.34 1012.63 1012.88 1012.93 1013.04 1013.54 1013.31 1014.19 1014.37 1014.68 1014.97 1015.35 1015.62 1015.80 1015.97 1016.12 1016.30
Thickness
5688 5694 5695 5690 5655 5654 5658 5681 5706 5708 5714 5727 5730 5719 5709 5709 5704 5688 5720 5718 5716 5711 5707 5705 5703 5702 5700 5697 5695 5695 5694 5695 5694 5693 5693 5691 5691 5691 5691 5691 5690 5688 5686 5684 5683 5682 5681 5678 5678
5683 5688 5688 5672 5645 5638 5651 5687 5686 5707 5720 5727 5727 5719 5712 5697 5711 5709 5711 5714 5717 5711 5709 5702 5703 5701 5699 5697 5695 5694 5693 5694 5693 5694 5693 5691 5689 5689 5689 5689 5688 5686 5684 5681 5680 5679 5678 5676 5675
5678 5680 5664 5655 5645 5640 5651 5690 5694 5703 5717 5720 5714 5719 5709 5699 5708 5710 5719 5714 5715 5709 5707 5703 5701 5701 5697 5695 5696 5694 5693 5692 5692 5691 5691 5691 5689 5688 5688 5686 5685 5684 5682 5679 5678 5676 5676 5674 5674
5669 5667 5662 5647 5648 5663 5672 5684 5693 5697 5708 5715 5715 5695 5705 5712 5709 5715 5716 5712 5713 5707 5704 5702 5699 5698 5697 5692 5693 5693 5693 5691 5691 5691 5689 5688 5688 5686 5685 5684 5683 5682 5680 5677 5675 5674 5674 5673 5673
5664 5654 5639 5642 5652 5670 5681 5684 5698 5692 5699 5703 5714 5693 5692 5705 5714 5713 5713 5709 5710 5704 5702 5699 5697 5695 5695 5692 5690 5689 5691 5691 5689 5689 5687 5687 5687 5685 5684 5682 5681 5679 5677 5674 5673 5672 5671 5671 5670
5645 5648 5630 5636 5648 5667 5682 5688 5694 5693 5694 5697 5702 5694 5685 5701 5705 5707 5709 5705 5704 5701 5698 5696 5693 5691 5692 5690 5689 5687 5687 5688 5686 5686 5684 5684 5684 5683 5682 5680 5679 5677 5675 5672 5671 5670 5669 5668 5668
5638 5633 5631 5642 5645 5657 5676 5693 5684 5692 5689 5694 5699 5680 5680 5691 5699 5702 5703 5703 5696 5695 5693 5692 5690 5687 5688 5687 5686 5685 5685 5683 5682 5681 5681 5681 5681 5681 5679 5678 5676 5674 5671 5669 5668 5668 5667 5664 5664
5639 5630 5636 5637 5640 5651 5676 5686 5692 5689 5685 5702 5699 5676 5672 5686 5695 5697 5695 5695 5691 5688 5688 5688 5686 5684 5683 5684 5682 5682 5681 5680 5680 5678 5678 5678 5678 5677 5676 5675 5674 5671 5668 5666 5665 5664 5663 5661 5660
5639 5616 5622 5635 5643 5655 5670 5671 5687 5693 5686 5689 5687 5686 5693 5691 5690 5685 5683 5682 5681 5682 5682 5684 5682 5682 5680 5680 5679 5678 5676 5676 5676 5676 5676 5675 5674 5673 5672 5671 5670 5668 5665 5663 5661 5660 5660 5658 5655
5618 5610 5624 5643 5646 5645 5655 5655 5670 5673 5674 5670 5669 5680 5684 5682 5683 5678 5675 5672 5674 5675 5677 5678 5678 5678 5677 5676 5675 5674 5672 5672 5672 5672 5672 5671 5670 5670 5669 5667 5666 5664 5661 5659 5658 5657 5656 5654 5651
5616 5605 5626 5632 5637 5639 5646 5650 5657 5664 5665 5664 5664 5667 5675 5675 5674 5675 5675 5674 5672 5672 5674 5674 5674 5675 5674 5672 5671 5670 5669 5668 5668 5668 5668 5667 5666 5665 5665 5663 5661 5659 5657 5655 5654 5652 5650 5649 5647
5598 5613 5618 5628 5631 5632 5636 5639 5644 5654 5653 5661 5664 5667 5667 5667 5668 5669 5671 5676 5675 5673 5673 5671 5673 5672 5672 5668 5667 5667 5667 5666 5665 5666 5664 5663 5661 5660 5659 5659 5657 5655 5654 5652 5650 5649 5647 5644 5642
5591 5592 5604 5613 5620 5626 5634 5629 5631 5641 5653 5657 5658 5661 5663 5663 5662 5664 5667 5671 5674 5674 5672 5672 5673 5672 5672 5667 5663 5662 5663 5663 5664 5663 5661 5660 5660 5657 5655 5654 5652 5651 5650 5649 5647 5646 5643 5640 5636
5574 5580 5589 5602 5605 5610 5615 5623 5627 5638 5648 5645 5648 5648 5653 5658 5661 5659 5659 5664 5668 5669 5671 5672 5673 5672 5672 5667 5663 5661 5660 5662 5660 5662 5660 5658 5658 5654 5652 5649 5648 5646 5646 5645 5642 5642 5639 5635 5632
5567 5568 5579 5591 5599 5601 5610 5607 5611 5628 5632 5630 5636 5640 5648 5656 5656 5659 5660 5661 5663 5665 5665 5667 5668 5669 5669 5667 5663 5661 5660 5662 5657 5658 5658 5656 5656 5652 5648 5646 5645 5644 5644 5641 5638 5635 5633 5629 5627
5556 5560 5559 5586 5591 5595 5596 5591 5609 5621 5620 5622 5630 5638 5641 5648 5658 5661 5660 5660 5661 5660 5663 5663 5665 5666 5666 5665 5662 5660 5658 5659 5658 5655 5655 5654 5653 5651 5645 5642 5641 5641 5640 5637 5634 5630 5626 5622 5620
5544 5539 5552 5566 5584 5587 5584 5589 5608 5616 5613 5616 5623 5635 5643 5645 5649 5655 5659 5660 5660 5660 5659 5659 5661 5661 5660 5661 5660 5657 5654 5653 5653 5652 5650 5650 5648 5648 5644 5641 5638 5637 5636 5632 5629 5624 5623 5616 5613
5523 5532 5543 5547 5564 5568 5570 5573 5589 5605 5607 5609 5616 5623 5633 5639 5645 5650 5655 5660 5658 5660 5657 5655 5653 5655 5654 5653 5653 5652 5649 5649 5650 5650 5647 5646 5643 5641 5642 5640 5636 5633 5629 5626 5624 5621 5617 5614 5608
5521 5524 5525 5541 5552 5555 5563 5566 5581 5594 5602 5602 5611 5615 5620 5626 5640 5647 5650 5655 5655 5653 5654 5652 5650 5649 5649 5648 5648 5646 5645 5645 5645 5646 5644 5640 5638 5637 5638 5636 5631 5628 5626 5622 5619 5615 5613 5606 5603
5518 5515 5515 5538 5546 5549 5553 5562 5576 5584 5594 5598 5600 5605 5611 5619 5629 5634 5639 5641 5644 5647 5652 5648 5646 5646 5646 5645 5643 5643 5640 5640 5640 5637 5638 5637 5635 5634 5633 5631 5628 5625 5622 5618 5615 5612 5605 5603 5601
5517 5515 5517 5519 5531 5540 5546 5551 5569 5583 5584 5588 5595 5598 5604 5610 5615 5623 5627 5630 5638 5637 5639 5644 5645 5644 5643 5643 5638 5637 5633 5632 5633 5635 5635 5634 5631 5629 5628 5628 5626 5622 5619 5617 5613 5608 5606 5599 5596
5518 5509 5511 5512 5503 5507 5529 5505 5537 5560 5569 5576 5581 5585 5592 5598 5605 5612 5615 5620 5624 5630 5633 5638 5638 5636 5636 5638 5635 5635 5635 5633 5634 5633 5630 5628 5626 5625 5625 5626 5625 5621 5617 5616 5612 5607 5603 5598 5594
5509 5506 5503 5503 5506 5507 5514 5478 5518 5551 5556 5560 5562 5569 5575 5582 5587 5595 5605 5608 5616 5621 5621 5625 5630 5632 5629 5626 5630 5629 5632 5636 5630 5629 5626 5624 5623 5622 5619 5620 5622 5621 5615 5613 5609 5604 5600 5598 5595
5502 5503 5494 5506 5500 5448 5500 5488 5507 5537 5538 5537 5540 5545 5552 5562 5571 5579 5588 5597 5599 5610 5619 5620 5623 5627 5628 5627 5627 5625 5624 5629 5627 5627 5622 5621 5620 5618 5616 5616 5614 5614 5613 5610 5606 5600 5597 5594 5592
5490 5481 5420 5449 5468 5439 5513 5490 5504 5511 5509 5506 5508 5516 5526 5540 5551 5559 5566 5574 5583 5593 5609 5619 5619 5622 5625 5625 5625 5624 5624 5622 5630 5625 5625 5621 5618 5616 5616 5613 5610 5608 5607 5606 5600 5596 5594 5591 5588
5479 5476 5469 5467 5463 5471 5499 5503 5509 5499 5497 5492 5490 5494 5504 5514 5524 5537 5548 5557 5560 5569 5585 5601 5612 5617 5618 5620 5620 5621 5618 5619 5621 5622 5624 5624 5621 5618 5614 5613 5610 5607 5604 5603 5600 5596 5595 5590 5589
5470 5460 5480 5450 5437 5454 5484 5511 5494 5495 5493 5486 5482 5480 5483 5491 5501 5514 5525 5534 5543 5551 5563 5581 5597 5612 5620 5622 5619 5619 5616 5616 5619 5622 5622 5624 5621 5618 5613 5609 5607 5607 5604 5602 5600 5598 5597 5591 5589
5471 5471 5475 5444 5421 5438 5466 5480 5475 5473 5468 5462 5464 5463 5467 5470 5475 5486 5500 5511 5522 5534 5548 5568 5591 5605 5613 5617 5620 5617 5614 5613 5614 5615 5619 5616 5621 5618 5613 5610 5608 5607 5603 5601 5599 5600 5599 5594 5592
5474 5470 5469 5472 5464 5453 5422 5455 5459 5454 5448 5449 5451 5454 5449 5449 5452 5459 5471 5484 5499 5514 5532 5548 5575 5592 5597 5603 5606 5606 5606 5608 5607 5610 5615 5616 5615 5615 5614 5611 5610 5607 5603 5601 5597 5597 5597 5595 5593
5472 5470 5470 5461 5464 5454 5455 5452 5450 5446 5443 5442 5442 5442 5439 5440 5444 5444 5448 5456 5468 5486 5509 5530 5552 5566 5574 5585 5593 5597 5601 5603 5605 5606 5607 5611 5611 5610 5616 5608 5607 5605 5602 5601 5599 5597 5597 5595 5594